• In Hungary
  • List of Countries
  • For 7 days
  • Water Temperature
  • Satellite Maps
  • Weather Map
  • News
  • Weather Widgets
  • user-avatar
    Login

    Hourly Weather Zdzieszyn

    Today, 20 June, Wednesday

    Time Temperature Precipitation Wind Pressure Humidity
    00:00 +17°C° 0 mm 2 mps 751 mmHg 86%
    01:00 +17°C° 0 mm 2 mps 751 mmHg 85%
    02:00 +17°C° 0 mm 2 mps 751 mmHg 86%
    03:00 +16°C° 0 mm 2 mps 752 mmHg 86%
    04:00 +16°C° 0 mm 2 mps 752 mmHg 87%
    05:00 +18°C° 0 mm 2 mps 752 mmHg 81%
    06:00 +20°C° 0 mm 2 mps 752 mmHg 75%
    07:00 +23°C° 0 mm 2 mps 752 mmHg 68%
    08:00 +24°C° 0 mm 3 mps 752 mmHg 63%
    09:00 +25°C° 0 mm 3 mps 752 mmHg 59%
    10:00 +26°C° 0 mm 4 mps 752 mmHg 55%
    11:00 +26°C° 0 mm 4 mps 752 mmHg 53%
    12:00 +27°C° 0 mm 4 mps 751 mmHg 52%
    13:00 +27°C° 0 mm 4 mps 751 mmHg 51%
    14:00 +27°C° 0 mm 3 mps 751 mmHg 52%
    15:00 +27°C° 0 mm 3 mps 751 mmHg 53%
    16:00 +27°C° 0 mm 3 mps 750 mmHg 54%
    17:00 +26°C° 0 mm 2 mps 750 mmHg 58%
    18:00 +25°C° 0 mm 2 mps 750 mmHg 62%
    19:00 +24°C° 0 mm 1 mps 750 mmHg 67%
    20:00 +23°C° 0 mm 1 mps 749 mmHg 69%
    21:00 +22°C° 0 mm 1 mps 749 mmHg 71%
    22:00 +20°C° 0 mm 2 mps 749 mmHg 73%
    23:00 +20°C° 0 mm 2 mps 749 mmHg 75%

    Tomorrow, 21 June, Thursday

    Time Temperature Precipitation Wind Pressure Humidity
    00:00 +19°C° 0 mm 2 mps 749 mmHg 77%
    01:00 +19°C° 0 mm 2 mps 749 mmHg 79%
    02:00 +18°C° 0 mm 2 mps 748 mmHg 80%
    03:00 +18°C° 0 mm 3 mps 748 mmHg 81%
    04:00 +18°C° 0 mm 3 mps 747 mmHg 82%
    05:00 +20°C° 0 mm 3 mps 747 mmHg 77%
    06:00 +22°C° 0 mm 4 mps 747 mmHg 72%
    07:00 +23°C° 0 mm 4 mps 746 mmHg 66%
    08:00 +26°C° 0.1 mm 4 mps 746 mmHg 62%
    09:00 +27°C° 0.1 mm 4 mps 745 mmHg 58%
    10:00 +28°C° 0.1 mm 4 mps 744 mmHg 54%
    11:00 +29°C° 0 mm 5 mps 744 mmHg 52%
    12:00 +30°C° 0 mm 5 mps 743 mmHg 51%
    13:00 +30°C° 0 mm 5 mps 742 mmHg 49%
    14:00 +30°C° 0 mm 5 mps 741 mmHg 51%
    15:00 +30°C° 0 mm 5 mps 740 mmHg 54%
    16:00 +29°C° 0 mm 5 mps 740 mmHg 56%
    17:00 +28°C° 0.4 mm 5 mps 740 mmHg 62%
    18:00 +26°C° 0.4 mm 5 mps 739 mmHg 67%
    19:00 +24°C° 0.4 mm 6 mps 739 mmHg 73%
    20:00 +21°C° 0.9 mm 6 mps 740 mmHg 77%
    21:00 +19°C° 0.9 mm 6 mps 741 mmHg 81%
    22:00 +15°C° 0.9 mm 6 mps 741 mmHg 85%
    23:00 +14°C° 0.1 mm 6 mps 742 mmHg 83%

    Day after tomorrow, 22 June, Friday

    Time Temperature Precipitation Wind Pressure Humidity
    00:00 +13°C° 0.1 mm 5 mps 743 mmHg 80%
    01:00 +12°C° 0.1 mm 5 mps 743 mmHg 77%
    02:00 +10°C° 0 mm 5 mps 744 mmHg 78%
    03:00 +9°C° 0 mm 5 mps 744 mmHg 79%
    04:00 +8°C° 0 mm 5 mps 744 mmHg 80%
    05:00 +9°C° 0 mm 6 mps 744 mmHg 74%
    06:00 +10°C° 0 mm 6 mps 745 mmHg 69%
    07:00 +11°C° 0 mm 7 mps 745 mmHg 63%
    08:00 +12°C° 0 mm 7 mps 745 mmHg 60%
    09:00 +14°C° 0 mm 7 mps 745 mmHg 57%
    10:00 +15°C° 0 mm 8 mps 745 mmHg 54%
    11:00 +15°C° 0 mm 8 mps 745 mmHg 55%
    12:00 +15°C° 0 mm 7 mps 745 mmHg 56%
    13:00 +15°C° 0 mm 7 mps 745 mmHg 57%
    14:00 +15°C° 0.1 mm 7 mps 745 mmHg 56%
    15:00 +16°C° 0.1 mm 6 mps 745 mmHg 56%
    16:00 +16°C° 0.1 mm 6 mps 745 mmHg 56%
    17:00 +15°C° 0.2 mm 5 mps 745 mmHg 62%
    18:00 +15°C° 0.2 mm 4 mps 745 mmHg 68%
    19:00 +14°C° 0.2 mm 3 mps 745 mmHg 73%
    20:00 +13°C° 0 mm 3 mps 745 mmHg 77%
    21:00 +12°C° 0 mm 3 mps 745 mmHg 80%
    22:00 +11°C° 0 mm 3 mps 746 mmHg 83%
    23:00 +10°C° 0 mm 3 mps 745 mmHg 85%

    23 June, Saturday

    Time Temperature Precipitation Wind Pressure Humidity
    00:00 +10°C° 0 mm 3 mps 745 mmHg 86%
    01:00 +10°C° 0 mm 4 mps 745 mmHg 87%
    02:00 +10°C° 0 mm 4 mps 745 mmHg 88%
    03:00 +8°C° 0 mm 4 mps 745 mmHg 88%
    04:00 +8°C° 0 mm 4 mps 745 mmHg 89%
    05:00 +9°C° 0 mm 5 mps 745 mmHg 84%
    06:00 +12°C° 0 mm 5 mps 745 mmHg 79%
    07:00 +13°C° 0 mm 6 mps 746 mmHg 74%
    08:00 +12°C° 0.2 mm 7 mps 746 mmHg 72%
    09:00 +12°C° 0.2 mm 7 mps 746 mmHg 70%
    10:00 +14°C° 0.2 mm 7 mps 746 mmHg 69%
    11:00 +14°C° 0.2 mm 7 mps 746 mmHg 68%
    12:00 +13°C° 0.2 mm 8 mps 746 mmHg 66%
    13:00 +13°C° 0.2 mm 8 mps 746 mmHg 65%
    14:00 +15°C° 0.1 mm 8 mps 746 mmHg 64%
    15:00 +15°C° 0.1 mm 7 mps 746 mmHg 62%
    16:00 +15°C° 0.1 mm 7 mps 746 mmHg 61%
    17:00 +15°C° 0.1 mm 6 mps 746 mmHg 65%
    18:00 +14°C° 0.1 mm 5 mps 746 mmHg 68%
    19:00 +14°C° 0.1 mm 4 mps 747 mmHg 72%
    20:00 +13°C° 0 mm 4 mps 747 mmHg 76%
    21:00 +12°C° 0 mm 4 mps 747 mmHg 79%
    22:00 +11°C° 0 mm 4 mps 747 mmHg 83%
    23:00 +10°C° 0 mm 4 mps 748 mmHg 85%

    24 June, Sunday

    Time Temperature Precipitation Wind Pressure Humidity
    00:00 +10°C° 0 mm 4 mps 748 mmHg 87%
    01:00 +10°C° 0 mm 3 mps 748 mmHg 90%
    02:00 +9°C° 0 mm 3 mps 748 mmHg 91%
    03:00 +9°C° 0 mm 3 mps 748 mmHg 93%
    04:00 +9°C° 0 mm 3 mps 748 mmHg 95%
    05:00 +10°C° 0 mm 3 mps 748 mmHg 88%
    06:00 +12°C° 0 mm 4 mps 749 mmHg 82%
    07:00 +14°C° 0 mm 4 mps 749 mmHg 75%
    08:00 +15°C° 0 mm 5 mps 749 mmHg 69%
    09:00 +16°C° 0 mm 5 mps 749 mmHg 63%
    10:00 +19°C° 0 mm 5 mps 749 mmHg 57%
    11:00 +19°C° 0.1 mm 5 mps 749 mmHg 56%
    12:00 +20°C° 0.1 mm 5 mps 749 mmHg 55%
    13:00 +21°C° 0.1 mm 5 mps 749 mmHg 54%
    14:00 +21°C° 0.2 mm 4 mps 749 mmHg 54%
    15:00 +21°C° 0.2 mm 4 mps 749 mmHg 55%
    16:00 +21°C° 0.2 mm 4 mps 749 mmHg 56%
    17:00 +20°C° 0.1 mm 3 mps 749 mmHg 61%
    18:00 +19°C° 0.1 mm 3 mps 749 mmHg 67%
    19:00 +18°C° 0.1 mm 2 mps 749 mmHg 72%
    20:00 +17°C° 0 mm 2 mps 750 mmHg 76%
    21:00 +16°C° 0 mm 2 mps 750 mmHg 80%
    22:00 +15°C° 0 mm 2 mps 750 mmHg 83%
    23:00 +14°C° 0 mm 2 mps 750 mmHg 85%

    25 June, Monday

    Time Temperature Precipitation Wind Pressure Humidity
    00:00 +14°C° 0 mm 2 mps 750 mmHg 87%
    01:00 +13°C° 0 mm 2 mps 750 mmHg 89%
    02:00 +13°C° 0 mm 2 mps 750 mmHg 90%
    03:00 +13°C° 0 mm 2 mps 751 mmHg 91%
    04:00 +13°C° 0 mm 2 mps 751 mmHg 92%
    05:00 +14°C° 0 mm 2 mps 751 mmHg 86%
    06:00 +16°C° 0 mm 2 mps 751 mmHg 81%
    07:00 +17°C° 0 mm 3 mps 751 mmHg 76%
    08:00 +18°C° 0.3 mm 3 mps 751 mmHg 71%
    09:00 +19°C° 0.3 mm 3 mps 751 mmHg 67%
    10:00 +20°C° 0.3 mm 3 mps 751 mmHg 62%
    11:00 +21°C° 0.4 mm 3 mps 751 mmHg 60%
    12:00 +22°C° 0.4 mm 3 mps 751 mmHg 57%
    13:00 +22°C° 0.4 mm 4 mps 751 mmHg 54%
    14:00 +22°C° 0.2 mm 3 mps 751 mmHg 55%
    15:00 +22°C° 0.2 mm 3 mps 751 mmHg 56%
    16:00 +22°C° 0.2 mm 3 mps 751 mmHg 57%
    17:00 +21°C° 0.1 mm 3 mps 751 mmHg 61%
    18:00 +20°C° 0.1 mm 2 mps 751 mmHg 65%
    19:00 +19°C° 0.1 mm 2 mps 751 mmHg 69%
    20:00 +18°C° 0 mm 2 mps 751 mmHg 72%
    21:00 +18°C° 0 mm 2 mps 751 mmHg 74%
    22:00 +17°C° 0 mm 2 mps 751 mmHg 77%
    23:00 +16°C° 0 mm 2 mps 751 mmHg 82%
    Show more